This is the latest recevied weather packets stored in our database for station/object LU5DTF-WX. If no packets are shown the sender has not sent any weather packets the latest 10 day(s).
| Time | Temp. | Humidity | Pressure | Rain* | Wind** | Luminosity | Snow |
|---|---|---|---|---|---|---|---|
| 1787849703 | 17.78° C | 63% | 1005.4 hPa | 0 mm | - | - | - |
| 1787849403 | 17.78° C | 64% | 1005.4 hPa | 0 mm | - | - | - |
| 1787849103 | 17.78° C | 64% | 1005.4 hPa | 0 mm | - | - | - |
| 1787848803 | 17.78° C | 63% | 1005.5 hPa | 0 mm | - | - | - |
| 1787848503 | 17.78° C | 62% | 1005.5 hPa | 0 mm | - | - | - |
| 1787848203 | 17.78° C | 62% | 1005.4 hPa | 0 mm | - | - | - |
| 1787847903 | 17.78° C | 61% | 1005.6 hPa | 0 mm | - | - | - |
| 1787847603 | 17.78° C | 60% | 1005.5 hPa | 0 mm | - | - | - |
| 1787847303 | 17.78° C | 58% | 1005.4 hPa | 0 mm | - | - | - |
| 1787847003 | 17.78° C | 59% | 1005.6 hPa | 0 mm | - | - | - |
| 1787846703 | 17.78° C | 61% | 1005.7 hPa | 0 mm | - | - | - |
| 1787846403 | 17.78° C | 60% | 1005.7 hPa | 0 mm | - | - | - |
| 1787846106 | 17.78° C | 62% | 1005.7 hPa | 0 mm | - | - | - |
| 1787845803 | 17.78° C | 63% | 1005.6 hPa | 0 mm | - | - | - |
| 1787845503 | 17.78° C | 62% | 1005.6 hPa | 0 mm | - | - | - |
| 1787845203 | 17.78° C | 63% | 1005.8 hPa | 0 mm | - | - | - |
| 1787844903 | 17.22° C | 64% | 1005.7 hPa | 0 mm | - | - | - |
| 1787844603 | 17.22° C | 66% | 1005.4 hPa | 0 mm | - | - | - |
| 1787844303 | 16.67° C | 66% | 1005.4 hPa | 0 mm | - | - | - |
| 1787844003 | 16.67° C | 67% | 1005.4 hPa | 0 mm | - | - | - |
| 1787843703 | 16.67° C | 68% | 1005.9 hPa | 0 mm | - | - | - |
| 1787843403 | 16.67° C | 71% | 1006.2 hPa | 0 mm | - | - | - |
| 1787843103 | 16.67° C | 71% | 1006.1 hPa | 0 mm | - | - | - |
| 1787842803 | 16.11° C | 73% | 1006.2 hPa | 0 mm | - | - | - |
| 1787842503 | 16.11° C | 73% | 1006 hPa | 0 mm | - | - | - |
* Rain latest hour (hover to see other rain measurements)
** Current wind speed in m/s (hover to see current wind gust speed)